Flag for Germany Weather past 2 weeks in Westerstede, Lower Saxony, Germany

Now
52 °F

Light rain. Passing clouds.


Feels Like: 48 °F
Forecast: 54 / 60 °F
Wind: 12 mph from Southwest

Location: Wittmundhaven

Current Time: Sep 4, 2015 at 6:54:18 AM

Latest Report: Sep 4, 2015 at 5:20 AM


Visibility: N/A

Pressure: 29.80 "Hg

Humidity: 88%

Dew point: 48 °F

Location of WesterstedeLocation

Historic Weather in Westerstede — Graph

°F

Westerstede temperature yesterday

Maximum temperature yesterday: 63 °F (at 1:20 PM)
Minimum temperature yesterday: 48 °F (at 4:20 AM)
Average temperature yesterday: 55 °F

Past Weeks' High & Low Weather Summary

 TemperatureHumidityPressure
High77 °F (Aug 21, 3:20 PM)100% (Aug 20, 4:20 AM)30.27 "Hg (Aug 20, 4:20 AM)
Low48 °F (Sep 3, 4:20 AM)34% (Aug 22, 1:20 PM)29.50 "Hg (Aug 24, 6:20 PM)
Average63 °F78%29.93 "Hg
* Reported Aug 20 4:20 AM — Sep 4 4:20 AM, Westerstede, Weather by CustomWeather, © 2015

Note: Actual official high and low records may vary slightly from our data, if they occured in-between our weather recording intervals... More about our weather records

Advertising

Westerstede weather history for previous 24 hours

 ConditionsComfort  
Time TempWeatherWind HumidityBarometerVisibility
4:20 AM
Fri, Sep 4
52 °FPartly cloudy.10 mph88%29.83 "HgN/A
3:20 AM50 °FPassing clouds.9 mph94%29.83 "HgN/A
2:20 AM50 °FPassing clouds.8 mph94%29.86 "HgN/A
1:20 AM50 °FPassing clouds.7 mph94%29.86 "HgN/A
12:20 AM50 °FPassing clouds.7 mph94%29.86 "HgN/A
11:20 PM
Thu, Sep 3
52 °FPassing clouds.6 mph88%29.86 "HgN/A
10:20 PM52 °FPassing clouds.7 mph94%29.86 "HgN/A
9:20 PM54 °FPassing clouds.6 mph88%29.86 "HgN/A
8:20 PM55 °FBroken clouds.6 mph88%29.86 "HgN/A
7:20 PM57 °FBroken clouds.9 mph82%29.86 "HgN/A
6:20 PM59 °FPartly sunny.9 mph72%29.86 "HgN/A
5:49 PM59 °FBroken clouds.9 mph72%29.86 "HgN/A
5:20 PM59 °FBroken clouds.10 mph77%29.86 "HgN/A
4:20 PM59 °FThunderstorms. Partly sunny.12 mph72%29.86 "HgN/A
3:20 PM63 °FScattered clouds.14 mph56%29.86 "HgN/A
2:20 PM61 °FBroken clouds.14 mph59%29.89 "HgN/A
1:20 PM63 °FScattered clouds.14 mph64%29.89 "HgN/A
12:20 PM61 °FScattered clouds.15 mph68%29.89 "HgN/A
11:20 AM59 °FScattered clouds.16 mph72%29.89 "HgN/A
10:20 AM57 °FPassing clouds.13 mph77%29.89 "HgN/A
9:20 AM55 °FPassing clouds.9 mph82%29.89 "HgN/A
7:20 AM48 °FPassing clouds.8 mph94%29.92 "HgN/A
6:20 AM48 °FPassing clouds.7 mph94%29.89 "HgN/A
Weather by CustomWeather, © 2015

See weather overviewHow to use our weather pages